• In India
  • List of Countries
  • For 7 days
  • Water Temperature
  • Satellite Maps
  • Weather Map
  • Weather Widgets
  • user-avatar
    Login

    Hourly Weather Tirana

    Today, 11 December, Monday

    Time Temperature Precipitation Wind Pressure Humidity
    00:00 +2°C° 0 mm 6 mps 757 mmHg 74%
    01:00 +2°C° 0 mm 6 mps 757 mmHg 73%
    02:00 +2°C° 0 mm 6 mps 757 mmHg 72%
    03:00 +3°C° 0 mm 7 mps 757 mmHg 72%
    04:00 +3°C° 0 mm 7 mps 756 mmHg 71%
    05:00 +3°C° 0 mm 7 mps 756 mmHg 71%
    06:00 +3°C° 0 mm 7 mps 756 mmHg 70%
    07:00 +3°C° 0 mm 7 mps 756 mmHg 70%
    08:00 +5°C° 0 mm 7 mps 756 mmHg 70%
    09:00 +8°C° 0 mm 7 mps 756 mmHg 69%
    10:00 +9°C° 0 mm 7 mps 756 mmHg 68%
    11:00 +10°C° 0 mm 8 mps 756 mmHg 67%
    12:00 +11°C° 0 mm 8 mps 756 mmHg 66%
    13:00 +12°C° 0 mm 8 mps 756 mmHg 65%
    14:00 +11°C° 0 mm 8 mps 756 mmHg 69%
    15:00 +10°C° 0 mm 8 mps 756 mmHg 74%
    16:00 +9°C° 0 mm 8 mps 756 mmHg 78%
    17:00 +7°C° 0 mm 8 mps 756 mmHg 79%
    18:00 +7°C° 0 mm 8 mps 756 mmHg 79%
    19:00 +7°C° 0 mm 8 mps 756 mmHg 80%
    20:00 +7°C° 0 mm 8 mps 756 mmHg 79%
    21:00 +7°C° 0 mm 8 mps 756 mmHg 79%
    22:00 +7°C° 0 mm 8 mps 757 mmHg 79%
    23:00 +8°C° 0 mm 7 mps 757 mmHg 79%

    Tomorrow, 12 December, Tuesday

    Time Temperature Precipitation Wind Pressure Humidity
    00:00 +8°C° 0 mm 7 mps 757 mmHg 80%
    01:00 +8°C° 0 mm 7 mps 757 mmHg 80%
    02:00 +9°C° 0 mm 7 mps 757 mmHg 81%
    03:00 +9°C° 0 mm 7 mps 757 mmHg 81%
    04:00 +9°C° 0 mm 7 mps 756 mmHg 82%
    05:00 +9°C° 0 mm 6 mps 757 mmHg 82%
    06:00 +9°C° 0 mm 6 mps 757 mmHg 83%
    07:00 +9°C° 0 mm 6 mps 757 mmHg 83%
    08:00 +10°C° 0 mm 6 mps 757 mmHg 82%
    09:00 +11°C° 0 mm 6 mps 757 mmHg 80%
    10:00 +13°C° 0 mm 6 mps 758 mmHg 78%
    11:00 +14°C° 0 mm 6 mps 757 mmHg 78%
    12:00 +15°C° 0 mm 7 mps 757 mmHg 78%
    13:00 +15°C° 0 mm 7 mps 757 mmHg 78%
    14:00 +14°C° 0 mm 7 mps 757 mmHg 80%
    15:00 +14°C° 0 mm 6 mps 757 mmHg 83%
    16:00 +13°C° 0 mm 6 mps 757 mmHg 86%
    17:00 +11°C° 0 mm 6 mps 758 mmHg 86%
    18:00 +11°C° 0 mm 6 mps 758 mmHg 87%
    19:00 +10°C° 0 mm 6 mps 758 mmHg 87%
    20:00 +10°C° 0 mm 6 mps 758 mmHg 87%
    21:00 +10°C° 0 mm 6 mps 759 mmHg 86%
    22:00 +10°C° 0 mm 6 mps 759 mmHg 85%
    23:00 +9°C° 0 mm 6 mps 759 mmHg 84%

    Day after tomorrow, 13 December, Wednesday

    Time Temperature Precipitation Wind Pressure Humidity
    00:00 +9°C° 0 mm 6 mps 759 mmHg 84%
    01:00 +9°C° 0 mm 6 mps 759 mmHg 83%
    02:00 +9°C° 0 mm 6 mps 759 mmHg 83%
    03:00 +9°C° 0 mm 6 mps 758 mmHg 82%
    04:00 +9°C° 0 mm 6 mps 758 mmHg 82%
    05:00 +9°C° 0 mm 6 mps 758 mmHg 82%
    06:00 +9°C° 0 mm 6 mps 758 mmHg 81%
    07:00 +9°C° 0 mm 6 mps 758 mmHg 81%
    08:00 +10°C° 0 mm 6 mps 758 mmHg 78%
    09:00 +13°C° 0 mm 6 mps 758 mmHg 75%
    10:00 +14°C° 0 mm 6 mps 758 mmHg 72%
    11:00 +15°C° 0 mm 7 mps 758 mmHg 70%
    12:00 +15°C° 0 mm 7 mps 757 mmHg 68%
    13:00 +16°C° 0 mm 7 mps 757 mmHg 66%
    14:00 +15°C° 0.2 mm 7 mps 757 mmHg 71%
    15:00 +14°C° 0.2 mm 6 mps 756 mmHg 76%
    16:00 +13°C° 0.2 mm 6 mps 756 mmHg 81%
    17:00 +13°C° 0.4 mm 6 mps 756 mmHg 83%
    18:00 +12°C° 0.4 mm 5 mps 756 mmHg 84%
    19:00 +12°C° 0.4 mm 5 mps 756 mmHg 85%
    20:00 +12°C° 1.2 mm 5 mps 756 mmHg 87%
    21:00 +12°C° 1.2 mm 5 mps 756 mmHg 89%
    22:00 +10°C° 1.2 mm 5 mps 756 mmHg 91%
    23:00 +10°C° 1.3 mm 5 mps 756 mmHg 93%

    14 December, Thursday

    Time Temperature Precipitation Wind Pressure Humidity
    00:00 +10°C° 1.3 mm 5 mps 756 mmHg 95%
    01:00 +10°C° 1.3 mm 5 mps 756 mmHg 97%
    02:00 +11°C° 0.3 mm 4 mps 756 mmHg 96%
    03:00 +11°C° 0.3 mm 4 mps 756 mmHg 95%
    04:00 +10°C° 0.3 mm 4 mps 756 mmHg 93%
    05:00 +10°C° 0 mm 3 mps 756 mmHg 92%
    06:00 +9°C° 0 mm 3 mps 757 mmHg 92%
    07:00 +9°C° 0 mm 2 mps 757 mmHg 91%
    08:00 +10°C° 0 mm 2 mps 757 mmHg 84%
    09:00 +12°C° 0 mm 2 mps 757 mmHg 77%
    10:00 +13°C° 0 mm 2 mps 757 mmHg 70%
    11:00 +13°C° 0 mm 2 mps 757 mmHg 67%
    12:00 +12°C° 0 mm 3 mps 756 mmHg 64%
    13:00 +13°C° 0 mm 3 mps 756 mmHg 61%
    14:00 +12°C° 0 mm 3 mps 756 mmHg 66%
    15:00 +12°C° 0 mm 2 mps 756 mmHg 71%
    16:00 +10°C° 0 mm 2 mps 756 mmHg 76%
    17:00 +10°C° 0 mm 3 mps 756 mmHg 78%
    18:00 +9°C° 0 mm 3 mps 757 mmHg 79%
    19:00 +8°C° 0 mm 3 mps 757 mmHg 81%
    20:00 +8°C° 0 mm 3 mps 757 mmHg 80%
    21:00 +8°C° 0 mm 3 mps 757 mmHg 79%
    22:00 +7°C° 0 mm 4 mps 757 mmHg 78%
    23:00 +7°C° 0 mm 4 mps 756 mmHg 76%

    15 December, Friday

    Time Temperature Precipitation Wind Pressure Humidity
    00:00 +7°C° 0 mm 4 mps 756 mmHg 74%
    01:00 +6°C° 0 mm 5 mps 756 mmHg 72%
    02:00 +6°C° 0 mm 5 mps 755 mmHg 72%
    03:00 +6°C° 0 mm 5 mps 755 mmHg 72%
    04:00 +6°C° 0 mm 5 mps 755 mmHg 72%
    05:00 +6°C° 0 mm 5 mps 755 mmHg 71%
    06:00 +6°C° 0 mm 5 mps 755 mmHg 71%
    07:00 +7°C° 0 mm 5 mps 755 mmHg 70%
    08:00 +8°C° 0 mm 6 mps 755 mmHg 68%
    09:00 +10°C° 0 mm 6 mps 754 mmHg 67%
    10:00 +11°C° 0 mm 7 mps 754 mmHg 65%
    11:00 +11°C° 0.1 mm 7 mps 753 mmHg 66%
    12:00 +12°C° 0.1 mm 8 mps 753 mmHg 68%
    13:00 +12°C° 0.1 mm 9 mps 752 mmHg 69%
    14:00 +12°C° 0.1 mm 9 mps 752 mmHg 73%
    15:00 +11°C° 0.1 mm 9 mps 752 mmHg 77%
    16:00 +11°C° 0.1 mm 9 mps 751 mmHg 81%
    17:00 +11°C° 0.1 mm 9 mps 751 mmHg 82%
    18:00 +10°C° 0.1 mm 9 mps 751 mmHg 82%
    19:00 +10°C° 0.1 mm 9 mps 751 mmHg 83%
    20:00 +10°C° 0.2 mm 9 mps 751 mmHg 83%
    21:00 +10°C° 0.2 mm 9 mps 751 mmHg 83%
    22:00 +8°C° 0.2 mm 9 mps 751 mmHg 83%
    23:00 +8°C° 0.1 mm 9 mps 751 mmHg 83%

    16 December, Saturday

    Time Temperature Precipitation Wind Pressure Humidity
    00:00 +8°C° 0.1 mm 9 mps 751 mmHg 83%
    01:00 +10°C° 0.1 mm 9 mps 750 mmHg 83%
    02:00 +8°C° 0.1 mm 9 mps 750 mmHg 84%
    03:00 +8°C° 0.1 mm 9 mps 749 mmHg 84%
    04:00 +8°C° 0.1 mm 10 mps 749 mmHg 85%
    05:00 +8°C° 0 mm 10 mps 749 mmHg 84%
    06:00 +9°C° 0 mm 10 mps 748 mmHg 84%
    07:00 +9°C° 0 mm 10 mps 748 mmHg 83%
    08:00 +11°C° 0.1 mm 10 mps 748 mmHg 81%
    09:00 +11°C° 0.1 mm 10 mps 748 mmHg 79%
    10:00 +12°C° 0.1 mm 10 mps 748 mmHg 78%
    11:00 +12°C° 1.1 mm 10 mps 747 mmHg 78%
    12:00 +13°C° 1.1 mm 10 mps 747 mmHg 79%
    13:00 +13°C° 1.1 mm 10 mps 747 mmHg 80%
    14:00 +12°C° 1.3 mm 9 mps 746 mmHg 82%
    15:00 +12°C° 1.3 mm 9 mps 745 mmHg 84%
    16:00 +11°C° 1.3 mm 8 mps 745 mmHg 85%
    17:00 +11°C° 3.3 mm 7 mps 744 mmHg 85%
    18:00 +11°C° 3.3 mm 7 mps 744 mmHg 84%
    19:00 +11°C° 3.3 mm 7 mps 743 mmHg 84%
    20:00 +11°C° 4.9 mm 7 mps 743 mmHg 85%
    21:00 +10°C° 4.9 mm 7 mps 743 mmHg 86%
    22:00 +10°C° 4.9 mm 6 mps 742 mmHg 87%
    23:00 +10°C° 3.9 mm 6 mps 741 mmHg 87%
    Show more